Regional Weather Roundup
Issued by NWS Wakefield, VA

Home | Current Version | Previous Version | Graphics & Text | Print | Product List | Glossary On
Versions: 1 2 3 4 5 6 7 8 9 10 11 12 13 14 15 16 17 18 19 20 21 22 23 24 25 26 27 28 29 30 31 32 33 34 35 36 37 38 39 40 41 42 43 44 45 46 47 48 49
000
ASUS41 KAKQ 242110
RWRAKQ

REGIONAL WEATHER ROUNDUP
NATIONAL WEATHER SERVICE WAKEFIELD VA
400 PM EST SAT JAN 24 2015

Note: "fair" indicates few or no clouds below 12,000 feet with no
significant weather and/or obstructions to visibility. * = Denotes
station may not report precipitation (e.g., rain,snow,etc.),
thunder or fog.

VAZ042-051-052>054-056-242200-
NORTHERN VIRGINIA

CITY           SKY/WX    TMP DP  RH WIND       PRES   REMARKS
WASH NATIONAL  CLOUDY    43  32  65 NW10      29.50R
DULLES         CLOUDY    41  28  60 W16G24    29.50R
FORT BELVOIR   CLOUDY    42  33  72 W10       29.51R
QUANTICO       CLOUDY    42  34  73 NW10      29.53R
FREDERICKSBRG* PTSUNNY   44  38  79 W8        29.52S
STAFFORD*      CLOUDY    43  40  91 W3        29.56R
WARRENTON      PTSUNNY   45  40  81 W6        29.52R
CULPEPER*      PTSUNNY   46  36  66 W8        29.53R
MANASSAS*      MOSUNNY   43  36  75 NW8G18    29.52R
LEESBURG*      CLOUDY    41  32  70 W16G28    29.51R
WINCHESTER     SUNNY     41  23  48 NW18G24   29.51R
FRONT ROYAL*   FAIR      41  27  56 W9        29.51R
LURAY*         FAIR      43  30  61 W10       29.53R
$$

VAZ048-049-060>072-079>083-242200-
CENTRAL AND SOUTH CENTRAL VIRGINIA

CITY           SKY/WX    TMP DP  RH WIND       PRES   REMARKS
RICHMOND       PTSUNNY   43  40  89 W8        29.55R
CHESTERFIELD*  CLOUDY    45  32  61 W9        29.57R
PETERSBURG*    CLOUDY    45  42  87 W7        29.58R
HANOVER        PTSUNNY   42  39  89 W8        29.56R
TAPPAHANNOCK*  CLOUDY    42  37  82 W7        29.52S
QUINTON*       CLOUDY    40  38  93 SW3       29.54S
CHARLOTTSVILLE SUNNY     46  27  47 VRB5      29.53R
GORDONSVILLE*  FAIR      44  34  70 W3        29.53R
ORANGE*        PTSUNNY   45  36  70 SW13      29.54R
LOUISA*        PTSUNNY   45  39  81 W12       29.52R
BUMPASS*       MOCLDY    43  39  86 W5        29.53R
FARMVILLE*     SUNNY     49  32  52 W12G21    29.56R
CREWE*         MOCLDY    45  38  78 W6        29.57R
FORT PICKETT*  CLOUDY    42  39  88 W7        29.57R
CHASE CITY*    FAIR      48  38  70 W12       29.59R
CLARKSVILLE*   MOCLDY    45  37  76 W7        29.59S
SOUTH HILL*    CLOUDY    43  38  83 W7G16     29.65R
LAWRENCEVILLE* CLOUDY    43  40  89 W6        29.57R
EMPORIA*       CLOUDY    41  39  93 SW5       29.60R
$$

VAZ088>098-242200-
SOUTHEAST VIRGINIA

CITY           SKY/WX    TMP DP  RH WIND       PRES   REMARKS
NORFOLK        CLOUDY    40  36  86 VRB3G17   29.53R
VIRGINIA BEACH LGT RAIN  42  38  85 W16G23    29.52R
NORFOLK NAVAL  LGT RAIN  43  36  76 W13G24    29.55R
WEST POINT*    CLOUDY    43  39  87 W8        29.55R
SALUDA*        CLOUDY    38  36  92 W5        29.52R
NEWPORT NEWS   CLOUDY    43  38  82 NW13      29.54R
LANGLEY AFB    PTSUNNY   41  37  87 NW13G21   29.53R
FORT EUSTIS    PTSUNNY   41  41 100 N16       29.53R
WILLIAMSBURG*    N/A    N/A N/A N/A MISG      29.54R
HR EXEC AP*    CLOUDY    39  37  93 W8G16     29.57R
FRANKLIN*      CLOUDY    41  39  92 W9        29.58R
WAKEFIELD      CLOUDY    42  38  85 W8        29.57R
$$

VAZ020-022-025-037-045-242200-
WEST CENTRAL AND SOUTHWEST VIRGINIA

CITY           SKY/WX    TMP DP  RH WIND       PRES   REMARKS
STAUNTON*      SUNNY     42  23  46 W10G20    29.57R
WAYNESBORO*    FAIR      41  23  48 W10G20    29.54R
HOT SPRINGS VA CLOUDY    24  24 100 W12       29.49R WCI  13
LYNCHBURG      SUNNY     42  27  55 W15G22    29.61R
DANVILLE       SUNNY     47  28  47 W17G26    29.64R
SOUTH BOSTON*  FAIR      47  32  56 W9G18     29.61S
MARTINSVILLE   SUNNY     46  23  41 NW14G25   29.68R
ROANOKE        MOSUNNY   41  24  51 W13G22    29.66R
BLACKSBURG     FAIR      32  23  68 W14G23    29.67R WCI  22
DUBLIN*        PTSUNNY   34  26  72 W14G20    29.68R WCI  25
MARION*        MOSUNNY   36  25  64 W20G25    29.70R
HILLSVILLE*    SUNNY     34  24  68 NW13G21   29.64R WCI  25
RICHLANDS*     CLOUDY    31  22  69 W7G18     29.71R
WISE*          SUNNY     36  21  55 W10       29.72F
ABINGDON*      CLOUDY    35  28  77 W10G20    29.75R
$$

MDZ021>025-VAZ099-100-242200-
SOUTHERN MARYLAND AND THE DELMARVA PENINSULA

CITY           SKY/WX    TMP DP  RH WIND       PRES   REMARKS
PATUXENT RIVER CLOUDY    39  35  86 W10       29.49R
BAY BRIDGE APT   N/A     39  36  87 W5        29.47R
LEONARDTOWN    CLOUDY    37  34  87 W8        29.51R
DOVER          CLOUDY    37  37 100 W10       29.42R
GEORGETOWN     LGT RAIN  38  35  89 W8G18     29.44R FOG
EASTON         RAIN      39  39 100 NW6       29.50R
CAMBRIDGE      PTSUNNY   41  37  87 W7        29.47R
SALISBURY      LGT RAIN  40  36  86 W10       29.45R
OCEAN CITY     LGT RAIN  37  35  92 NW13G23   29.43R
WALLOPS ISLAND LGT SNOW  35  34  96 NW12G21   29.47R FOG
ACCOMACK*      RAIN      36  34  93 NW16G22   29.50R
$$

NCZ012>017-030>032-242200-
NORTH CENTRAL AND EASTERN NORTH CAROLINA

CITY           SKY/WX    TMP DP  RH WIND       PRES   REMARKS
ROANOKE RAPIDS CLOUDY    45  39  81 NW7       29.59R
RALEIGH        PTSUNNY   48  34  58 W12G18    29.64R
ELIZABETH CITY CLOUDY    41  38  89 NW16G22   29.55R
AHOSKIE*       CLOUDY    42  39  89 CALM      29.60R
EDENTON*       CLOUDY    42  39  88 NW12G17   29.58R
CURRITUCK*     CLOUDY    41  38  89 W12G17    29.55R
KILL DEVIL HLS CLOUDY    41  40  97 W14G22    29.52R
MANTEO         CLOUDY    41  39  93 NW14G23   29.55R
CAPE HATTERAS  CLOUDY    44  41  89 NW17G35   29.55R
TARBORO*       CLOUDY    45  40  84 W10       29.61S
GOLDSBORO      CLOUDY    43  43 100 W15       29.58S
WASHINGTON     CLOUDY    44  39  82 NW9       29.60R
GREENVILLE     CLOUDY    45  39  81 NW8       29.64R
NEW BERN       CLOUDY    48  38  68 NW15G24   29.62R
WILMINGTON     CLOUDY    48  40  73 W14G23    29.66R
$$

VAZ048-242200-
ELSEWHERE

CITY           SKY/WX    TMP DP  RH WIND       PRES   REMARKS
HARRISBURG PA  PTSUNNY   37  28  70 NW10      29.43R
BALTIMORE      CLOUDY    40  33  76 W10       29.46R
ANNAPOLIS      CLOUDY    41  34  76 W7G17     29.47R
ANDREWS AFB    PTSUNNY   40  33  77 W15       29.48R
PHILADELPHIA   CLOUDY    39  33  79 W8        29.39R
HENDERSON NC   PTSUNNY   45  34  66 W9G16     29.61R
GREENSBORO     MOSUNNY   47  27  45 NW17G25   29.65R
ROCKY MOUNT    PTSUNNY   46  39  76 W12       29.61R
$$

VAZ100-242200-
MARINE

STATION/POSITION TIME  TEMP    WIND        PRES    WAVE   SWELL
                       AIR SEA DIR/SP/G            HT/PER HT/PER
                 (UTC) (F)     (DEG/KT/KT) (MB)    (FT/S) (FT/S)
BRANDYWINE LGT   2100   37 37  320/ 17/ 19  995.5R
CAPE MAY NJ      2100   36 39  310/  9/ 23  994.9R
LEWES DE         2100   37 38  300/ 18/ 20  995.8R
15NM E FENWICK I 2100   39 43               995.0R   7/ 7
OCEAN-CITY-INLET 2100   37 40  320/ 14/ 21  996.0R
WACHAPREAGUE VA  2100   38 42  280/  6/ 14  998.5R
THOMAS POINT MD  2100   40 37  290/ 12/ 13  999.2R
GOOSES REEF MD   2100   38     VRB 12/ 14   997.4R
COVE POINT MD    2100   38     310/ 10/ 14  998.4R
SOLOMONS ISLAND  2100      38                N/A
BISHOPS HEAD MD  2100   38 38  290/ 15/ 19  998.1R
PINEY POINT MD   2100          320/ 14/ 16   N/A
POTOMAC MD       2100   39     310/ 17/ 21  997.9R
CAMBRIDGE MD     2100   39 36  280/  7/ 12  997.9R
LEWISETTA VA     2100   39 38  310/  9/ 12  998.7F
RAPPAHANNOCK LGT 2100          290/ 21/ 23  999.5R
STINGRAY PT      2100   38     300/ 17/ 23  999.8S
YORK RVR RNG VA  2100   40     310/ 17/ 20  999.1R
YORKTOWN VA      2100   40 41  290/ 14/ 18  999.6S
JAMESTOWN VA     2100   39     320/ 14/ 17   N/A
DOMINION TERM VA 2100   41     310/ 18/ 23  999.8R
KIPTOPEKE VA     2100      46  310/ 18/ 25   N/A
CHES BAY BRIDGE  2100   40 42  280/ 21/ 24  999.4R
CAPE HENRY VA    2100   40     280/ 17/ 23  998.5R
CHESAPEAKE LGHT  2000   39     290/ 26/ 30  999.0R
WILLOUBY STN VA  2100   40     300/ 17/ 19 1000.3F
S CRANEY ISL VA  2100          290/  8/ 13 1000.1F
CAPE HENRY BUOY  2100      45                N/A     6/11   2/11
1ST LANDING BUOY 2100   40     300/ 19/ 23  999.6R
CAPE CHARLES BUO 2100      43                N/A     4/11   3/11
OFFSHORE WE BUOY 2100      47                N/A     7/ 5   3/11
64NM E OF VA BCH 2100   42 52  300/ 27/ 35  996.9R  10/11   7/11
DUCK PIER NC     2100   41 44  300/ 20/ 24  998.6F
44100 DUCK FRF   2100      45                N/A     6/11   3/11
44056 DUCK FRF   2100      44                N/A     4/12   3/12
OREGON INLET NC  2100   42 49  290/ 19/ 25  999.7R
HATTERAS NC      2100   46 58  300/ 25/ 30 1000.7S



USA.gov is the U.S. government's official web portal to all federal, state and local government web resources and services.